map of OSS home
OSS - Airport
Location
City:  Osh, Osh, Kyrgyzstan
Name:Osh International Airport
ICAO:UCFO
IATA:OSS

Details
Type:Airport (Aerodrome, Airfield)
Use:Public/Civil, International (customs port of entry)
Latitude:4036'32"N (40.608997)
Longitude:7247'36"E (72.793214)
Elevation:2928 ft (892 m)
Variation:4.73E (WMM2015 magnetic declination)
0.05 annual change
Runways:1
Longest:9232 × 148 ft (2814 × 45 m), paved

Time
Time Zone:UTC+6
Local Time:

Weather
METAR:UCFO 230600Z 06004MPS 7000 SCT050CB BKN100 11/09 Q1025 R12/CLRD70 NOSIG
TAF:UCFO 230440Z 2306/2406 27005MPS 5000 BR SCT050CB BKN100
TEMPO 2306/2312 24009G14MPS 0800 SHRA FG SCT002 BKN015CB PROB40
TEMPO 2306/2312 TS
BECMG 2312/2314 17005MPS 2500 BR FU

Related Locations
Nearby:
Farthest:IPC: 11495 mi / 18499 km
Easter Island (Isla de Pascua, Rapa Nui) [Mataveri Intl], VS, CL

Find:

   beyond  
but within

Other Information
Maps:
NOTAMs:
Links:
Sources:

  
flag of Kyrgyzstan
flag of Osh
  

Sectional Chart

Flight Planning
at skyvector.com

Satellite Image

Google Maps Satellite view

 

Copyright © 2004-2017 Karl L. Swartz. All rights reserved.
The Great Circle Mapper name and logo are trademarks of the Great Circle Mapper.
All other trademarks mentioned herein belong to their respective owners.
Please see credits for attibutions and further copyright information.

  Follow gcmap on Facebook Follow gcmap on Twitter Follow gcmap on Google+ GCmap on LinkedIn

hCard Microformat

Geo Microformat